Temp
6 6 6 6 6 6 5 5 5 5 5 5 5 5 5 5 5 5 5 5 5 5 5 5 5 5 4 4 4 3 3 3 3 3 3 3 3 3 3 3 3 3 3 3 3 4 4 4 4 4 4 4 4 4 4 4 4 4 4 4 4 4 4 5 4 4 4 4 4
6 6 6 6 6 5 5 5 5 5 5 5 5 5 5 5 5 5 5 5 5 5 5 5 4 4 4 4 3 3 3 3 3 3 3 3 3 3 3 3 3 3 3 3 3 3 3 3 3 3 3 3 3 4 4 4 4 4 4 4 4 4 4 4 4 4 4 4 4
6 6 6 6 6 5 5 5 5 5 5 5 5 5 5 4 4 4 5 5 5 5 5 4 4 4 4 4 3 3 3 3 3 3 3 3 3 3 3 3 3 3 3 3 3 3 3 3 3 3 3 3 3 3 3 3 3 3 4 4 4 4 4 4 4 4 4 4 4
6 6 6 6 6 5 5 5 5 5 5 5 5 4 4 4 4 4 4 4 4 4 4 4 4 4 4 3 3 3 3 3 3 3 3 2 2 2 2 2 2 2 3 3 3 3 3 3 3 3 3 3 3 3 3 3 3 3 3 3 3 3 4 4 4 4 4 4 4
6 6 6 6 6 5 5 5 5 5 5 5 4 4 4 4 4 4 4 4 4 4 4 4 4 4 4 3 3 3 3 3 3 3 2 2 2 2 2 2 2 2 2 2 2 2 2 2 2 2 2 2 2 2 2 2 2 3 3 3 3 3 3 3 3 3 3 4 4
6 6 6 6 5 5 5 5 5 5 5 4 4 4 4 4 4 4 4 4 4 4 4 4 4 4 3 3 3 3 3 3 3 2 2 2 2 2 2 2 2 2 2 2 2 2 2 2 2 2 2 2 2 2 2 2 2 2 2 2 2 3 3 3 3 3 3 3 3
6 6 5 5 5 5 5 5 5 5 4 4 4 4 4 4 3 3 3 3 3 4 4 4 4 3 3 3 3 3 3 3 3 2 2 2 2 2 2 2 2 2 2 2 2 2 2 2 2 2 2 2 2 2 2 2 2 2 2 2 2 2 2 2 2 2 3 3 3
6 5 5 5 5 5 5 5 4 4 4 4 4 4 3 3 3 3 3 3 3 3 3 3 3 3 3 3 3 3 3 3 3 2 2 2 2 2 2 2 2 1 1 1 1 1 1 1 2 2 2 2 2 2 2 2 2 2 2 2 2 2 2 2 2 2 2 2 2
5 5 5 5 5 4 4 4 4 4 4 4 4 3 3 3 3 3 3 3 3 3 3 3 3 3 3 3 3 3 3 3 3 2 2 2 2 2 2 2 2 2 2 2 1 1 1 1 2 2 2 2 2 2 2 2 2 1 1 1 1 1 1 1 1 1 1 2 2
5 5 5 4 4 4 4 4 4 4 4 4 3 3 3 3 3 2 2 2 2 2 3 3 3 3 3 3 3 3 3 3 2 2 2 2 2 2 2 2 2 2 2 2 2 2 2 2 2 2 2 2 2 2 2 2 2 1 1 1 1 1 1 1 1 1 1 1 1
5 5 4 4 4 4 4 4 4 4 4 3 3 3 3 3 2 2 2 2 2 2 2 2 2 3 3 3 3 3 2 2 2 2 2 2 2 2 2 2 2 2 2 2 2 2 2 2 2 2 2 2 2 2 1 1 1 1 1 1 1 1 1 1 1 1 1 1 1
5 5 4 4 4 4 4 4 4 4 3 3 3 3 3 2 2 2 2 2 2 2 2 2 2 2 2 2 2 2 2 2 2 2 2 2 2 2 2 2 2 2 2 2 2 2 2 2 1 1 1 1 1 1 1 1 1 1 1 1 1 1 1 1 1 1 1 0 0
4 4 4 4 4 4 4 4 4 3 3 3 3 3 2 2 2 2 2 2 2 2 2 2 2 2 2 2 2 2 2 2 2 2 2 2 2 2 2 2 2 2 2 2 1 1 1 1 1 1 1 1 1 1 1 1 1 1 1 1 1 1 1 1 1 1 1 1 0
4 4 4 4 4 3 3 3 3 3 3 3 3 2 2 2 2 2 2 1 1 1 1 2 2 2 2 2 2 2 2 2 2 2 2 2 2 2 2 2 2 1 1 1 1 1 1 1 1 1 1 1 1 1 1 1 1 1 0 0 0 0 0 0 0 1 1 1 1
3 4 4 4 3 3 3 3 3 3 3 3 2 2 2 2 2 1 1 1 1 1 1 1 2 2 2 2 2 2 2 2 2 2 2 2 2 1 1 1 1 1 1 1 1 1 1 1 1 1 1 1 1 1 1 1 1 1 0 0 0 0 0 0 0 0 0 0 0
3 3 3 3 3 3 3 3 3 3 3 3 2 2 2 2 1 1 1 1 1 1 1 1 1 2 2 2 2 2 2 2 2 2 2 2 1 1 1 1 1 1 1 1 1 1 1 1 1 1 1 1 1 1 1 1 1 1 1 0 0 0 0 0 0 0 0 0 0
3 3 3 3 3 3 3 3 3 3 3 2 2 2 2 1 1 1 1 1 1 1 1 1 1 1 1 2 2 2 2 2 2 2 1 1 1 1 1 1 1 1 1 1 1 1 1 1 1 1 1 1 1 1 1 1 1 1 1 1 0 0 0 0 0 0 0 0 0
3 3 3 3 3 3 3 3 3 2 2 2 2 2 1 1 1 1 1 1 1 1 1 1 1 1 1 1 1 1 1 1 1 1 1 1 1 1 1 1 1 1 1 1 1 1 1 1 1 1 1 1 1 1 1 1 1 1 1 1 0 0 0 0 0 0 0 0 0
2 2 2 2 2 2 2 2 2 2 2 2 2 1 1 1 1 1 1 1 1 1 1 1 1 1 1 1 1 1 1 1 1 1 1 1 1 1 1 1 1 1 1 1 1 1 1 1 1 1 1 1 1 1 1 1 1 1 0 0 0 0 0 0 0 0 0 0 0
2 2 2 2 2 2 2 2 2 2 2 2 1 1 1 1 1 1 0 0 0 0 0 0 1 1 1 1 1 1 1 1 1 1 1 1 1 1 1 1 1 1 1 1 1 1 1 1 1 1 1 1 1 1 1 0 0 0 0 0 0 0 0 0 0 0 0 0 0
2 2 2 2 2 2 2 2 2 2 1 1 1 1 1 1 0 0 0 0 0 0 0 0 0 1 1 1 1 1 1 1 1 1 1 1 1 1 1 1 1 1 1 1 1 1 1 1 1 1 1 0 0 0 0 0 0 0 0 0 0 0 0 0 0 0 0 0 0
2 2 2 1 1 1 1 1 1 1 1 1 1 1 1 0 0 0 0 0 0 0 0 0 0 0 0 0 1 1 1 1 1 1 1 1 1 1 1 1 1 0 0 0 0 0 0 0 0 0 0 0 0 0 0 0 0 0 0 0 0 0 0 0 0 0 0 -0 -0
1 1 1 1 1 1 1 1 1 1 1 1 1 1 0 0 0 0 -0 -0 -0 -0 -0 0 0 0 0 0 0 0 0 0 1 1 1 1 1 0 0 0 0 0 0 0 0 0 0 0 0 0 0 0 0 0 0 0 0 0 0 0 0 0 0 0 0 0 0 0 -0
1 1 1 1 1 1 0 0 0 1 1 1 0 0 0 0 -0 -0 -0 -0 -0 -0 -0 -0 -0 0 0 0 0 0 0 0 0 0 0 0 0 0 0 0 0 0 0 0 0 0 0 0 0 0 0 0 0 0 0 0 0 0 0 0 0 1 1 1 0 0 0 0 0
1 0 0 0 0 -0 -0 -0 0 0 0 0 0 0 -0 -0 -0 -0 -0 -0 -0 -0 -0 -0 -0 -0 -0 -0 0 0 0 0 0 0 0 0 0 0 0 0 0 0 0 0 0 -0 -0 -0 -0 -0 -0 -0 -0 -0 0 0 0 0 0 0 0 1 1 1 1 1 0 0 0
0 0 -0 -0 -0 -1 -1 -0 -0 0 0 0 -0 -0 -0 -0 -0 -0 -1 -1 -1 -1 -1 -0 -0 -0 -0 -0 -0 0 0 0 0 0 0 0 0 0 0 0 0 0 0 0 -0 -0 -0 -0 -0 -0 -1 -0 -0 -0 -0 -0 0 0 0 0 0 0 0 1 1 1 1 0 0
-0 -0 -1 -1 -1 -1 -1 -1 -0 -0 -0 -0 -0 -0 -0 -0 -1 -1 -1 -1 -1 -1 -1 -1 -1 -0 -0 -0 -0 0 0 0 0 0 0 0 0 0 0 0 0 0 -0 -0 -0 -0 -0 -0 -0 -1 -1 -1 -1 -1 -0 -0 -0 -0 0 0 0 0 0 0 0 0 0 0 0
-1 -1 -1 -1 -1 -1 -1 -1 -0 -0 -0 -0 -0 -0 -0 -1 -1 -1 -1 -1 -1 -1 -1 -1 -1 -1 -0 -0 -0 -0 -0 -0 -0 -0 0 0 0 0 -0 -0 -0 -0 -0 -0 -0 -0 -0 -0 -1 -1 -1 -1 -1 -1 -1 -1 -1 -0 -0 -0 -0 -0 -0 -0 0 0 0 0 0
-1 -1 -1 -1 -1 -1 -1 -1 -1 -0 -0 -1 -1 -1 -1 -1 -1 -1 -1 -1 -1 -1 -1 -1 -1 -1 -1 -0 -0 -0 -0 -0 -0 -0 -0 -0 -0 -0 -0 -0 -0 -0 -0 -0 -0 -0 -0 -1 -1 -1 -1 -1 -1 -1 -1 -1 -1 -1 -1 -1 -1 -0 -0 -0 -0 -0 -0 -0 -0
-1 -1 -2 -2 -1 -1 -1 -1 -1 -1 -1 -1 -1 -1 -1 -1 -1 -1 -1 -1 -1 -1 -1 -1 -1 -1 -1 -1 -1 -0 -0 -0 -0 -0 -0 -0 -0 -0 -0 -0 -0 -0 -0 -0 -0 -0 -0 -1 -1 -1 -1 -1 -1 -1 -1 -1 -1 -1 -1 -1 -1 -1 -1 -1 -1 -1 -1 -0 -0
-1 -1 -2 -2 -2 -2 -1 -1 -1 -1 -1 -1 -1 -1 -1 -1 -1 -1 -2 -2 -2 -1 -1 -1 -1 -1 -1 -1 -1 -1 -1 -1 -1 -1 -1 -1 -1 -0 -0 -0 -0 -0 -0 -0 -0 -0 -1 -1 -1 -1 -1 -1 -1 -2 -2 -1 -1 -1 -1 -1 -1 -1 -1 -1 -1 -1 -1 -1 -1
-2 -2 -2 -2 -2 -2 -2 -2 -2 -1 -1 -1 -1 -1 -1 -1 -2 -2 -2 -2 -2 -2 -2 -2 -1 -1 -1 -1 -1 -1 -1 -1 -1 -1 -1 -1 -1 -1 -0 -0 -0 -0 -0 -0 -1 -1 -1 -1 -1 -1 -1 -1 -2 -2 -2 -2 -2 -2 -2 -1 -1 -1 -1 -1 -1 -1 -1 -1 -1
-2 -2 -2 -2 -2 -2 -2 -2 -2 -2 -1 -1 -1 -1 -2 -2 -2 -2 -2 -2 -2 -2 -2 -2 -2 -2 -1 -1 -1 -1 -1 -1 -1 -1 -1 -1 -1 -1 -1 -0 -0 -0 -1 -1 -1 -1 -1 -1 -1 -1 -1 -2 -2 -2 -2 -2 -2 -2 -2 -2 -2 -2 -2 -2 -2 -2 -2 -2 -2
-2 -3 -3 -3 -3 -3 -3 -2 -2 -2 -2 -2 -2 -2 -2 -2 -2 -2 -2 -2 -2 -2 -2 -2 -2 -2 -2 -2 -1 -1 -1 -1 -1 -1 -1 -1 -1 -1 -1 -1 -1 -1 -1 -1 -1 -1 -1 -1 -1 -1 -2 -2 -2 -2 -2 -2 -2 -2 -2 -2 -2 -2 -2 -2 -2 -2 -2 -2 -2
-3 -3 -3 -3 -3 -3 -3 -2 -2 -2 -2 -2 -2 -2 -2 -2 -2 -2 -3 -3 -3 -3 -3 -2 -2 -2 -2 -2 -2 -1 -1 -1 -1 -1 -1 -1 -1 -1 -1 -1 -1 -1 -1 -1 -1 -1 -1 -1 -1 -2 -2 -2 -2 -2 -2 -2 -2 -2 -2 -2 -2 -2 -2 -2 -2 -3 -3 -3 -3
-3 -3 -3 -3 -3 -3 -3 -3 -2 -2 -2 -2 -2 -3 -3 -3 -3 -3 -3 -3 -3 -3 -3 -3 -2 -2 -2 -2 -2 -2 -1 -1 -1 -1 -1 -1 -1 -1 -1 -1 -1 -1 -1 -1 -1 -1 -1 -1 -2 -2 -2 -2 -2 -2 -2 -3 -3 -3 -3 -3 -3 -3 -3 -3 -3 -3 -3 -3 -3
-4 -4 -4 -4 -3 -3 -3 -3 -3 -3 -3 -3 -3 -3 -3 -3 -3 -3 -3 -3 -3 -3 -3 -3 -3 -2 -2 -2 -2 -2 -2 -2 -1 -1 -1 -1 -1 -1 -1 -1 -1 -1 -1 -1 -1 -1 -2 -2 -2 -2 -2 -2 -3 -3 -3 -3 -3 -3 -3 -3 -3 -3 -3 -3 -3 -3 -3 -3 -3
-4 -4 -4 -4 -4 -3 -3 -3 -3 -3 -3 -3 -3 -3 -3 -3 -4 -4 -4 -3 -3 -3 -3 -3 -3 -3 -2 -2 -2 -2 -2 -2 -2 -2 -2 -2 -2 -2 -2 -1 -1 -1 -1 -1 -2 -2 -2 -2 -2 -2 -3 -3 -3 -3 -3 -4 -4 -4 -4 -4 -4 -4 -4 -4 -4 -4 -4 -3 -3
-4 -4 -4 -4 -4 -4 -3 -3 -3 -3 -3 -3 -3 -4 -4 -4 -4 -4 -4 -4 -3 -3 -3 -3 -3 -3 -2 -2 -2 -2 -2 -2 -2 -2 -2 -2 -2 -2 -2 -2 -2 -2 -2 -2 -2 -2 -2 -2 -2 -3 -3 -3 -4 -4 -4 -4 -4 -4 -4 -4 -4 -4 -4 -4 -4 -4 -4 -4 -4
-5 -4 -4 -4 -4 -4 -4 -4 -4 -4 -4 -4 -4 -4 -4 -4 -4 -4 -4 -4 -3 -3 -3 -3 -3 -3 -3 -2 -2 -2 -2 -2 -2 -2 -2 -2 -2 -2 -2 -2 -2 -2 -2 -2 -2 -2 -2 -2 -3 -3 -3 -4 -4 -4 -5 -5 -5 -5 -5 -5 -5 -5 -5 -5 -5 -4 -4 -4 -4
-5 -5 -5 -4 -4 -4 -4 -4 -4 -4 -4 -4 -4 -4 -4 -4 -4 -4 -4 -4 -4 -3 -3 -3 -3 -3 -3 -3 -2 -2 -2 -2 -2 -2 -2 -2 -2 -2 -2 -2 -2 -2 -2 -2 -2 -2 -3 -3 -3 -3 -4 -4 -5 -5 -5 -6 -6 -6 -6 -5 -5 -5 -5 -5 -5 -5 -5 -4 -4
Height
1474 1474 1475 1475 1476 1476 1476 1477 1477 1477 1477 1478 1478 1478 1478 1478 1478 1477 1477 1477 1477 1477 1477 1477 1476 1476 1476 1476 1476 1476 1476 1476 1476 1475 1475 1475 1475 1475 1474 1474 1474 1474 1473 1473 1472 1472 1471 1470 1470 1469 1469 1468 1467 1467 1466 1466 1465 1465 1465 1464 1464 1464 1464 1463 1463 1463 1462 1462 1462
1473 1474 1474 1474 1475 1475 1476 1476 1476 1477 1477 1477 1477 1477 1477 1477 1477 1477 1477 1477 1477 1477 1477 1477 1477 1476 1476 1476 1476 1476 1476 1476 1476 1476 1475 1475 1475 1475 1475 1474 1474 1474 1474 1473 1473 1472 1472 1471 1470 1470 1469 1469 1468 1468 1467 1467 1466 1466 1465 1465 1464 1464 1464 1464 1463 1463 1463 1463 1463
1472 1473 1473 1474 1474 1475 1475 1475 1476 1476 1476 1477 1477 1477 1477 1477 1477 1477 1477 1477 1477 1477 1477 1477 1477 1476 1476 1476 1476 1476 1476 1476 1476 1475 1475 1475 1475 1475 1475 1474 1474 1474 1474 1474 1473 1473 1472 1472 1471 1470 1470 1469 1469 1468 1468 1467 1467 1466 1466 1465 1465 1465 1464 1464 1464 1464 1464 1463 1463
1471 1472 1472 1473 1474 1474 1474 1475 1475 1475 1476 1476 1476 1477 1477 1477 1477 1477 1477 1477 1477 1477 1477 1477 1476 1476 1476 1476 1476 1476 1476 1476 1475 1475 1475 1475 1475 1475 1474 1474 1474 1474 1474 1474 1473 1473 1473 1472 1472 1471 1470 1470 1469 1469 1468 1468 1468 1467 1467 1466 1466 1465 1465 1464 1464 1464 1464 1464 1464
1470 1471 1472 1472 1473 1474 1474 1474 1475 1475 1475 1476 1476 1476 1476 1477 1477 1477 1477 1477 1477 1477 1477 1477 1476 1476 1476 1476 1476 1476 1476 1475 1475 1475 1475 1475 1474 1474 1474 1474 1474 1474 1474 1474 1473 1473 1473 1472 1472 1471 1471 1470 1470 1469 1469 1469 1468 1468 1467 1467 1466 1466 1465 1465 1464 1464 1464 1464 1464
1469 1470 1471 1472 1472 1473 1473 1474 1474 1474 1475 1475 1476 1476 1476 1476 1476 1477 1477 1477 1477 1477 1477 1476 1476 1476 1476 1476 1476 1476 1476 1475 1475 1475 1475 1474 1474 1474 1474 1474 1474 1474 1473 1473 1473 1473 1472 1472 1472 1471 1471 1471 1470 1470 1470 1469 1469 1469 1468 1467 1467 1466 1466 1465 1465 1464 1464 1464 1464
1468 1469 1470 1471 1471 1472 1473 1473 1474 1474 1474 1475 1475 1475 1476 1476 1476 1476 1477 1477 1477 1476 1476 1476 1476 1476 1476 1476 1476 1476 1475 1475 1475 1475 1474 1474 1474 1474 1474 1474 1474 1473 1473 1473 1473 1472 1472 1472 1472 1471 1471 1471 1470 1470 1470 1470 1469 1469 1469 1468 1467 1467 1466 1466 1465 1465 1464 1464 1464
1467 1468 1469 1470 1471 1471 1472 1472 1473 1473 1474 1474 1475 1475 1475 1476 1476 1476 1476 1476 1476 1476 1476 1476 1476 1476 1476 1476 1476 1476 1475 1475 1475 1475 1474 1474 1474 1474 1474 1474 1474 1473 1473 1473 1473 1472 1472 1472 1471 1471 1471 1471 1470 1470 1470 1470 1469 1469 1469 1468 1468 1468 1467 1466 1466 1465 1465 1464 1464
1466 1467 1468 1469 1470 1470 1471 1472 1472 1473 1473 1474 1474 1474 1475 1475 1476 1476 1476 1476 1476 1476 1476 1476 1476 1476 1476 1476 1476 1476 1475 1475 1475 1475 1474 1474 1474 1474 1474 1474 1474 1473 1473 1473 1472 1472 1472 1471 1471 1471 1470 1470 1470 1470 1470 1469 1469 1469 1469 1468 1468 1468 1468 1467 1467 1466 1465 1465 1464
1465 1466 1467 1468 1469 1469 1470 1471 1471 1472 1473 1473 1474 1474 1474 1475 1475 1476 1476 1476 1476 1476 1476 1476 1476 1476 1476 1476 1476 1475 1475 1475 1475 1475 1474 1474 1474 1474 1474 1473 1473 1473 1473 1472 1472 1472 1471 1471 1471 1470 1470 1470 1469 1469 1469 1469 1468 1468 1468 1468 1468 1468 1467 1467 1467 1466 1466 1465 1465
1464 1465 1466 1467 1468 1469 1469 1470 1471 1471 1472 1472 1473 1474 1474 1474 1475 1475 1475 1476 1476 1476 1475 1475 1475 1475 1475 1475 1475 1475 1475 1475 1475 1474 1474 1474 1474 1474 1474 1473 1473 1473 1472 1472 1472 1471 1471 1471 1470 1470 1469 1469 1469 1468 1468 1468 1467 1467 1467 1467 1467 1467 1467 1466 1466 1466 1466 1465 1465
1463 1464 1465 1466 1467 1468 1469 1469 1470 1471 1471 1472 1472 1473 1474 1474 1474 1475 1475 1475 1475 1475 1475 1475 1475 1475 1475 1475 1475 1475 1475 1475 1475 1474 1474 1474 1474 1474 1474 1473 1473 1473 1472 1472 1472 1471 1471 1470 1470 1469 1469 1469 1468 1468 1467 1467 1466 1466 1466 1465 1465 1465 1465 1465 1465 1465 1465 1464 1464
1462 1463 1464 1465 1466 1467 1468 1469 1469 1470 1471 1471 1472 1472 1473 1474 1474 1474 1475 1475 1475 1475 1475 1475 1475 1475 1475 1475 1475 1475 1474 1474 1474 1474 1474 1474 1474 1474 1474 1473 1473 1473 1472 1472 1472 1471 1471 1470 1469 1469 1469 1468 1468 1467 1467 1466 1466 1465 1465 1464 1464 1464 1464 1463 1463 1463 1463 1463 1463
1461 1462 1463 1464 1465 1466 1467 1468 1469 1469 1470 1471 1471 1472 1473 1473 1474 1474 1474 1474 1474 1474 1474 1474 1474 1474 1474 1474 1474 1474 1474 1474 1474 1474 1474 1474 1474 1474 1473 1473 1473 1473 1472 1472 1472 1471 1471 1470 1469 1469 1469 1468 1468 1467 1467 1466 1466 1465 1465 1464 1464 1463 1463 1462 1462 1461 1461 1461 1461
1460 1461 1462 1463 1464 1465 1466 1467 1468 1469 1469 1470 1471 1471 1472 1473 1473 1473 1474 1474 1474 1474 1474 1474 1474 1474 1474 1474 1474 1474 1474 1474 1474 1474 1474 1473 1473 1473 1473 1473 1473 1472 1472 1472 1471 1471 1471 1470 1469 1469 1469 1468 1468 1467 1467 1466 1466 1465 1465 1464 1464 1463 1463 1462 1461 1461 1460 1460 1459
1459 1460 1461 1462 1463 1464 1465 1466 1467 1468 1469 1469 1470 1471 1471 1472 1472 1473 1473 1473 1474 1474 1474 1474 1473 1473 1473 1473 1473 1473 1473 1473 1473 1473 1473 1473 1473 1473 1473 1473 1472 1472 1472 1472 1471 1471 1471 1470 1469 1469 1469 1468 1468 1467 1467 1466 1466 1465 1465 1464 1464 1463 1463 1462 1461 1461 1460 1459 1459
1458 1459 1460 1461 1462 1464 1464 1465 1466 1467 1468 1469 1469 1470 1471 1471 1472 1472 1473 1473 1473 1473 1473 1473 1473 1473 1473 1473 1473 1473 1473 1473 1473 1473 1473 1473 1473 1473 1473 1472 1472 1472 1472 1471 1471 1471 1470 1470 1469 1469 1469 1468 1468 1467 1467 1466 1466 1465 1465 1464 1464 1463 1463 1462 1461 1461 1460 1459 1459
1457 1458 1459 1460 1461 1462 1464 1464 1465 1466 1467 1468 1469 1469 1470 1471 1471 1472 1472 1472 1472 1473 1473 1473 1473 1473 1473 1473 1473 1473 1473 1473 1473 1473 1473 1473 1473 1472 1472 1472 1472 1472 1471 1471 1471 1470 1470 1470 1469 1469 1469 1468 1468 1467 1467 1466 1466 1465 1465 1464 1464 1463 1463 1462 1461 1461 1460 1459 1459
1456 1457 1458 1459 1460 1461 1463 1464 1464 1465 1466 1467 1468 1469 1469 1470 1470 1471 1471 1472 1472 1472 1472 1472 1472 1472 1472 1472 1472 1473 1473 1473 1473 1472 1472 1472 1472 1472 1472 1472 1472 1471 1471 1471 1470 1470 1470 1469 1469 1469 1468 1468 1467 1467 1466 1466 1465 1465 1464 1464 1463 1463 1462 1462 1461 1460 1460 1459 1459
1455 1456 1457 1458 1459 1460 1462 1463 1464 1465 1465 1466 1467 1468 1469 1469 1470 1470 1471 1471 1471 1471 1472 1472 1472 1472 1472 1472 1472 1472 1472 1472 1472 1472 1472 1472 1472 1472 1472 1472 1472 1471 1471 1471 1470 1470 1470 1469 1469 1469 1468 1468 1467 1466 1466 1466 1465 1465 1464 1464 1463 1463 1462 1461 1461 1460 1459 1459 1458
1454 1455 1456 1457 1458 1459 1461 1462 1463 1464 1465 1465 1466 1467 1468 1469 1469 1470 1470 1470 1471 1471 1471 1471 1471 1471 1471 1472 1472 1472 1472 1472 1472 1472 1472 1472 1472 1472 1472 1472 1472 1471 1471 1471 1470 1470 1469 1469 1469 1468 1468 1467 1467 1466 1466 1465 1465 1464 1464 1463 1463 1462 1462 1461 1460 1460 1459 1458 1457
1453 1454 1455 1456 1457 1459 1460 1461 1462 1463 1464 1465 1465 1466 1467 1468 1468 1469 1469 1470 1470 1470 1470 1471 1471 1471 1471 1471 1471 1471 1471 1471 1471 1471 1471 1471 1471 1471 1471 1472 1471 1471 1471 1471 1470 1470 1469 1469 1469 1468 1468 1467 1466 1466 1465 1465 1464 1464 1463 1463 1462 1462 1461 1461 1460 1459 1459 1458 1457
1451 1453 1454 1455 1456 1458 1459 1460 1461 1462 1463 1464 1464 1465 1466 1467 1468 1468 1469 1469 1469 1470 1470 1470 1470 1470 1470 1470 1471 1471 1471 1471 1471 1471 1471 1471 1471 1471 1471 1471 1471 1471 1471 1470 1470 1469 1469 1469 1468 1467 1467 1466 1466 1465 1465 1464 1464 1463 1463 1462 1461 1461 1460 1460 1459 1459 1458 1457 1456
1450 1452 1453 1454 1455 1457 1458 1459 1460 1461 1462 1463 1464 1464 1465 1466 1467 1468 1468 1468 1469 1469 1469 1469 1469 1469 1470 1470 1470 1470 1470 1470 1470 1470 1470 1470 1470 1471 1471 1471 1471 1470 1470 1470 1469 1469 1468 1467 1467 1466 1466 1465 1465 1464 1464 1463 1463 1462 1461 1461 1460 1460 1459 1459 1458 1458 1457 1456 1456
1449 1451 1452 1453 1454 1456 1457 1458 1459 1460 1461 1462 1463 1464 1464 1465 1466 1467 1467 1468 1468 1468 1468 1469 1469 1469 1469 1469 1469 1469 1469 1469 1469 1469 1469 1470 1470 1470 1470 1470 1470 1469 1469 1469 1468 1468 1467 1466 1465 1465 1464 1464 1463 1463 1462 1462 1461 1461 1460 1459 1459 1458 1458 1457 1457 1457 1456 1455 1455
1449 1450 1451 1452 1454 1455 1456 1457 1458 1459 1460 1461 1462 1463 1464 1464 1465 1466 1466 1467 1467 1467 1468 1468 1468 1468 1468 1469 1469 1469 1469 1469 1469 1469 1469 1469 1469 1469 1469 1469 1469 1468 1468 1467 1467 1467 1466 1465 1465 1464 1463 1463 1462 1462 1461 1461 1460 1460 1459 1459 1458 1457 1456 1456 1455 1455 1455 1454 1454
1448 1449 1450 1451 1453 1454 1455 1456 1458 1459 1459 1460 1461 1462 1463 1464 1464 1465 1465 1466 1466 1467 1467 1467 1467 1467 1468 1468 1468 1468 1468 1468 1468 1468 1468 1468 1468 1468 1468 1467 1467 1467 1466 1466 1466 1465 1465 1465 1464 1464 1463 1462 1461 1461 1460 1460 1460 1459 1459 1458 1457 1456 1456 1455 1454 1454 1453 1453 1452
1447 1448 1449 1450 1452 1453 1454 1455 1457 1458 1458 1459 1460 1461 1462 1463 1463 1464 1465 1465 1466 1466 1466 1466 1466 1466 1466 1467 1467 1467 1467 1467 1467 1467 1467 1467 1467 1467 1466 1466 1466 1466 1465 1465 1465 1465 1464 1464 1464 1463 1463 1462 1461 1460 1460 1459 1459 1459 1458 1457 1457 1456 1455 1454 1454 1453 1452 1451 1451
1446 1447 1449 1450 1451 1452 1454 1455 1456 1457 1457 1458 1459 1460 1461 1462 1462 1463 1464 1464 1465 1465 1465 1465 1465 1465 1465 1465 1465 1466 1466 1466 1466 1466 1466 1466 1465 1465 1465 1465 1465 1465 1465 1464 1464 1464 1464 1463 1463 1463 1462 1461 1460 1459 1459 1458 1458 1457 1457 1456 1455 1455 1454 1453 1453 1452 1451 1450 1449
1445 1447 1448 1449 1450 1452 1453 1454 1455 1455 1456 1457 1458 1459 1460 1461 1462 1462 1463 1464 1464 1464 1464 1464 1464 1464 1464 1464 1464 1464 1464 1464 1464 1464 1465 1465 1465 1464 1464 1464 1464 1464 1464 1464 1464 1463 1463 1463 1462 1462 1461 1460 1459 1459 1458 1457 1456 1456 1455 1454 1454 1453 1453 1452 1451 1450 1449 1449 1448
1445 1446 1447 1449 1450 1451 1452 1453 1454 1454 1455 1456 1457 1458 1459 1460 1461 1461 1462 1463 1463 1463 1464 1464 1464 1464 1464 1464 1464 1464 1464 1464 1464 1464 1464 1464 1464 1464 1464 1464 1464 1463 1463 1463 1463 1462 1462 1461 1461 1460 1460 1459 1458 1457 1456 1455 1454 1454 1453 1452 1452 1451 1450 1449 1449 1448 1448 1447 1446
1444 1445 1446 1448 1449 1450 1451 1452 1453 1454 1454 1455 1456 1457 1458 1459 1460 1460 1461 1462 1462 1462 1463 1463 1463 1463 1463 1463 1463 1463 1463 1463 1463 1463 1463 1463 1463 1463 1463 1463 1463 1462 1462 1462 1461 1461 1460 1460 1459 1459 1458 1458 1456 1455 1454 1454 1453 1452 1451 1450 1449 1449 1448 1447 1446 1446 1445 1444 1444
1443 1444 1445 1447 1448 1449 1450 1451 1452 1453 1454 1454 1455 1456 1457 1458 1459 1459 1460 1461 1461 1461 1462 1462 1462 1462 1462 1462 1462 1462 1462 1462 1462 1462 1462 1462 1462 1461 1461 1461 1461 1461 1461 1460 1460 1459 1459 1459 1458 1457 1457 1456 1454 1454 1453 1452 1451 1450 1449 1448 1447 1446 1445 1445 1444 1443 1442 1442 1441
1442 1443 1444 1446 1447 1448 1449 1450 1451 1452 1453 1454 1455 1455 1456 1457 1458 1459 1459 1460 1460 1461 1461 1461 1461 1461 1461 1461 1461 1461 1461 1461 1461 1461 1460 1460 1460 1460 1460 1460 1460 1460 1459 1459 1458 1458 1457 1457 1456 1455 1454 1454 1453 1452 1450 1449 1449 1448 1446 1445 1445 1444 1443 1443 1442 1441 1440 1439 1439
1441 1443 1444 1445 1446 1447 1448 1449 1450 1451 1452 1453 1454 1455 1456 1456 1457 1458 1459 1459 1459 1460 1460 1460 1460 1460 1460 1460 1459 1459 1459 1459 1459 1459 1459 1459 1459 1459 1458 1458 1458 1458 1458 1457 1457 1456 1456 1455 1454 1454 1453 1451 1450 1449 1448 1447 1446 1445 1444 1444 1443 1442 1441 1440 1439 1439 1438 1437 1436
1441 1442 1444 1444 1446 1447 1448 1449 1449 1450 1451 1452 1453 1454 1455 1456 1456 1457 1458 1458 1459 1459 1459 1459 1459 1459 1459 1459 1459 1458 1458 1458 1458 1458 1458 1458 1457 1457 1457 1457 1457 1457 1456 1456 1455 1454 1454 1453 1452 1451 1450 1449 1448 1447 1446 1445 1444 1443 1442 1441 1440 1440 1439 1438 1437 1436 1436 1435 1434
1440 1442 1443 1444 1445 1446 1447 1448 1449 1449 1450 1451 1452 1453 1454 1455 1456 1456 1457 1457 1458 1458 1458 1458 1458 1458 1458 1457 1457 1457 1457 1457 1457 1457 1456 1456 1456 1455 1455 1455 1455 1455 1454 1454 1453 1453 1452 1451 1450 1449 1449 1447 1446 1445 1444 1443 1442 1441 1440 1439 1438 1438 1437 1436 1435 1434 1434 1433 1432
1440 1442 1443 1444 1444 1445 1446 1447 1448 1449 1450 1451 1452 1453 1454 1454 1455 1456 1456 1456 1456 1457 1457 1456 1456 1456 1456 1456 1456 1456 1456 1455 1455 1455 1455 1454 1454 1454 1453 1453 1453 1453 1453 1452 1452 1451 1450 1449 1449 1448 1447 1445 1444 1443 1442 1441 1440 1439 1438 1437 1436 1435 1434 1434 1433 1432 1431 1430 1430
1440 1441 1442 1443 1444 1445 1446 1447 1448 1448 1449 1450 1451 1452 1453 1454 1454 1455 1455 1455 1455 1455 1455 1455 1455 1455 1455 1454 1454 1454 1454 1454 1454 1454 1453 1453 1452 1452 1451 1451 1450 1450 1450 1450 1449 1449 1448 1447 1447 1446 1445 1444 1442 1441 1440 1439 1438 1437 1436 1435 1434 1433 1432 1431 1430 1429 1429 1428 1428
1439 1441 1442 1443 1444 1445 1445 1446 1447 1448 1449 1449 1450 1452 1452 1453 1454 1454 1454 1454 1454 1454 1454 1454 1454 1454 1453 1453 1453 1453 1453 1452 1452 1452 1451 1451 1451 1450 1450 1449 1449 1448 1448 1448 1448 1447 1446 1445 1444 1444 1443 1442 1441 1440 1439 1438 1437 1435 1434 1433 1432 1431 1430 1429 1428 1427 1426 1426 1426
1439 1441 1442 1443 1444 1444 1445 1446 1447 1448 1448 1449 1450 1451 1452 1452 1452 1453 1453 1453 1453 1453 1452 1452 1452 1452 1452 1452 1451 1451 1451 1451 1450 1450 1450 1449 1449 1449 1448 1447 1447 1446 1446 1446 1445 1444 1444 1443 1442 1442 1441 1440 1439 1438 1437 1436 1435 1434 1433 1431 1430 1429 1428 1426 1426 1425 1424 1424 1423
Wind_Speed
14 13 12 12 11 10 10 10 9 9 9 10 11 11 11 11 12 13 13 14 14 15 16 16 17 17 17 18 18 18 18 19 19 19 19 19 20 20 20 20 20 20 20 20 19 19 19 19 19 19 20 20 20 20 20 19 19 19 19 19 19 19 19 19 19 19 20 20 20
14 13 12 11 10 10 9 9 9 9 9 9 10 10 10 11 11 12 13 13 13 14 14 15 15 16 16 17 17 17 18 18 18 19 19 19 19 20 20 20 20 20 20 20 20 20 20 19 19 19 20 20 20 20 20 19 19 19 19 19 19 18 18 18 19 19 19 18 18
14 13 12 11 10 9 9 9 8 9 9 9 9 9 10 10 11 11 12 12 12 13 13 14 14 15 16 16 16 16 17 17 18 18 19 19 19 20 20 20 20 20 20 20 20 20 20 20 20 20 20 20 20 20 20 20 19 19 19 19 19 18 18 18 18 18 18 18 18
15 13 12 11 10 9 9 8 8 8 8 8 8 9 9 9 10 10 11 11 12 12 12 13 13 14 15 15 15 16 16 17 17 18 19 19 20 20 20 20 20 20 21 21 20 20 20 20 20 20 20 20 20 20 20 20 20 19 19 19 19 19 19 19 18 18 18 18 17
15 13 12 11 10 9 8 8 8 8 8 8 8 8 9 9 9 10 10 10 11 11 11 12 13 13 14 14 14 15 15 16 17 18 19 19 20 20 21 21 21 21 21 21 21 21 21 21 21 21 21 21 21 21 20 20 20 19 19 19 19 19 19 19 19 18 18 18 17
15 14 12 11 10 9 9 8 8 8 8 7 8 8 9 9 9 10 10 10 10 10 11 11 12 12 13 13 13 14 15 16 17 17 18 19 20 20 21 21 22 22 22 22 22 22 22 22 22 22 22 21 21 21 21 20 20 20 19 19 19 19 19 19 19 18 18 18 17
15 14 13 12 11 10 9 8 8 8 8 8 8 8 8 9 9 9 9 9 9 10 10 10 11 11 12 12 12 13 14 15 16 17 18 19 20 20 21 21 21 22 22 22 22 22 22 22 22 22 22 22 22 21 21 21 20 20 20 19 19 19 19 19 19 19 18 18 18
16 14 13 12 11 10 10 9 8 8 8 8 8 8 8 8 8 9 9 9 9 9 9 9 10 10 10 11 11 12 13 14 15 16 17 18 19 19 20 20 21 21 22 22 22 22 22 22 22 23 23 22 22 22 21 21 21 20 20 20 20 19 19 19 19 18 18 18 18
16 15 14 13 12 11 10 9 9 8 8 8 8 8 8 8 8 8 8 8 8 8 8 9 9 9 9 10 10 11 12 13 15 15 16 17 18 18 19 20 20 21 21 22 22 22 23 23 23 23 23 23 23 23 22 22 22 22 21 21 20 20 19 19 18 18 18 18 18
17 16 15 13 12 11 10 9 8 8 8 8 8 8 8 8 8 8 8 8 8 8 8 8 8 8 8 9 10 11 12 13 14 14 15 16 17 18 19 19 20 21 21 22 22 23 23 23 23 24 24 24 24 24 24 24 24 24 23 23 22 21 20 20 19 19 18 18 18
18 16 15 14 13 11 10 9 9 8 8 8 8 8 8 8 8 8 7 7 7 8 8 7 7 7 8 8 9 10 11 12 13 14 14 15 16 17 18 19 20 21 21 22 23 23 24 24 24 25 25 25 25 25 26 26 26 26 25 25 25 24 23 22 21 21 20 19 18
18 16 15 14 12 11 10 9 9 8 8 8 7 7 8 8 8 7 7 7 8 8 7 7 7 7 7 8 9 10 10 11 12 13 14 15 16 17 18 18 19 20 21 22 22 23 24 24 25 25 26 26 26 27 27 28 28 27 27 27 27 26 26 25 24 24 23 21 20
18 17 15 14 13 11 10 10 9 8 8 8 7 7 7 7 7 7 7 8 7 7 7 6 6 6 7 7 8 9 10 11 11 12 14 15 15 16 17 18 19 20 20 21 22 23 23 24 25 25 26 26 27 27 28 28 28 28 28 28 28 28 28 27 27 27 26 24 23
19 17 16 14 13 12 11 10 9 9 8 8 8 8 7 7 7 7 7 7 7 7 6 6 6 6 6 7 8 9 9 10 11 12 13 14 15 16 17 18 18 19 20 21 22 22 23 24 24 25 26 26 26 27 27 27 28 28 28 28 28 28 29 29 29 29 28 27 26
19 18 16 15 13 12 11 11 10 9 9 8 8 8 8 8 7 7 7 7 7 6 6 6 5 5 6 6 7 8 9 10 11 12 13 14 15 16 17 17 18 19 20 20 21 22 23 23 24 25 25 26 26 26 26 27 27 27 27 28 28 28 28 29 29 30 29 29 29
20 18 17 15 14 13 12 11 10 10 9 9 8 8 8 8 8 7 7 7 6 6 5 5 5 5 5 6 7 8 9 10 11 12 13 14 15 16 16 17 18 19 19 20 21 21 22 23 23 24 25 25 25 26 26 26 26 26 27 27 27 28 28 28 29 29 29 29 29
21 19 17 16 15 14 13 12 11 10 10 9 9 9 9 9 8 8 7 7 6 6 5 5 4 5 5 6 7 7 8 9 10 11 12 13 14 15 16 17 18 18 19 20 21 21 22 22 23 23 24 24 25 25 25 25 26 26 26 26 27 27 27 28 28 28 28 29 29
21 19 18 17 15 14 13 12 11 11 10 10 9 9 9 9 9 8 8 7 6 6 5 4 4 4 5 5 6 7 8 9 10 11 11 13 14 14 15 16 17 18 19 20 21 21 22 22 23 23 23 24 24 24 25 25 25 25 26 26 26 26 26 27 27 27 28 28 28
22 20 19 17 16 15 14 13 12 11 11 10 10 10 10 10 9 9 8 7 6 5 5 4 4 4 4 5 5 6 7 8 9 10 11 12 13 14 15 16 17 18 19 20 20 21 21 22 22 23 23 23 24 24 24 25 25 25 25 25 26 26 26 26 26 27 27 27 27
22 21 19 18 16 15 14 13 13 12 12 11 11 11 11 11 10 10 9 8 7 6 5 4 3 3 4 4 5 5 6 7 8 9 10 11 12 13 14 15 16 17 18 19 20 20 21 21 22 22 23 23 23 24 24 24 24 25 25 25 25 25 25 26 26 26 26 26 27
22 21 19 18 17 15 14 14 13 13 12 12 12 12 12 12 11 10 9 8 7 6 5 4 3 3 3 3 4 5 6 6 7 8 9 11 12 13 14 15 16 17 18 18 19 20 20 21 21 22 22 23 23 23 23 24 24 24 24 25 25 25 25 25 25 25 26 26 26
23 21 19 18 17 16 15 14 14 13 13 13 13 13 13 13 12 11 10 9 7 6 5 4 3 2 2 3 3 4 5 6 7 8 9 10 11 12 13 14 15 16 17 17 18 19 19 20 21 21 22 22 22 23 23 23 24 24 24 24 24 24 25 25 25 25 25 26 26
23 21 20 18 17 16 15 15 14 14 14 14 14 14 14 13 13 12 10 9 8 6 5 3 2 1 1 2 3 3 4 5 6 7 8 9 10 11 12 13 14 15 16 17 18 19 19 20 20 21 21 22 22 23 23 24 24 24 25 25 25 25 25 25 25 25 25 25 26
23 21 20 18 17 16 16 15 15 15 15 15 15 15 14 14 13 12 11 9 8 6 5 3 2 1 0 1 2 3 4 5 6 7 8 9 10 11 12 13 14 15 16 17 18 19 20 20 21 22 23 23 23 24 24 24 25 25 26 26 26 26 26 25 25 26 26 26 26
23 21 19 18 17 16 16 16 15 15 15 15 15 15 15 14 13 12 11 9 8 6 5 3 2 1 1 1 2 3 3 4 6 7 8 9 10 11 12 13 14 16 17 18 18 19 20 21 22 23 24 25 25 25 26 26 26 26 27 27 27 27 27 27 26 26 26 26 26
22 21 19 18 17 17 16 16 16 16 16 16 16 15 15 14 13 12 11 9 7 6 5 4 3 2 2 2 2 3 4 5 6 7 8 9 10 12 13 14 15 16 17 18 19 20 21 22 23 24 25 25 26 26 27 27 27 27 28 28 28 28 29 28 28 27 27 27 27
22 21 19 18 17 17 17 16 16 16 16 16 16 15 15 14 13 12 10 9 7 6 5 4 4 3 3 3 3 4 4 5 6 8 9 10 11 13 14 15 16 17 18 19 20 20 21 22 22 23 24 25 26 26 27 27 27 27 28 28 28 28 29 29 29 28 28 27 27
22 21 19 18 18 17 17 17 16 16 16 16 15 15 15 14 13 12 10 9 7 6 6 5 4 4 4 4 4 4 5 6 7 8 10 11 12 13 14 15 16 17 18 19 20 20 21 21 22 23 23 24 25 26 27 27 27 27 27 27 28 28 28 28 28 28 28 28 27
22 21 19 19 18 18 17 17 16 16 16 15 15 15 14 13 12 11 9 8 7 6 6 5 5 4 4 4 4 5 6 7 8 9 10 12 13 14 14 15 16 17 18 18 19 20 20 21 22 22 23 24 25 26 26 27 27 27 28 27 27 27 27 28 28 28 28 27 27
22 21 20 19 18 17 17 16 16 15 15 15 14 14 13 13 11 10 9 8 7 6 6 5 5 4 4 5 5 6 7 8 9 10 11 12 13 14 14 15 16 16 17 18 19 19 20 21 21 22 23 24 25 26 27 27 28 28 28 28 28 28 27 27 27 27 27 27 27
22 21 20 19 18 17 16 16 15 15 15 14 14 13 13 12 10 9 8 7 7 6 5 5 5 5 5 5 6 7 8 9 10 11 12 12 13 14 15 15 16 16 17 18 19 19 20 21 21 22 23 24 25 26 27 28 28 29 29 29 29 28 28 28 27 27 27 26 26
22 21 20 19 18 17 16 15 15 15 14 14 13 13 12 11 10 9 8 7 6 5 5 5 5 5 6 6 7 7 8 9 10 11 12 13 14 15 15 16 16 17 18 18 19 20 20 21 22 23 24 25 26 27 27 28 29 29 29 29 29 29 28 28 27 27 26 26 26
22 21 20 19 18 17 16 15 15 15 14 13 13 12 10 9 9 8 7 6 5 5 5 5 5 6 6 7 7 8 9 10 11 12 13 14 15 15 16 16 17 17 18 19 20 20 21 22 23 24 24 25 26 27 28 28 29 29 29 29 29 29 28 28 27 27 26 26 25
22 21 19 18 17 16 15 15 14 14 13 12 11 10 9 8 7 7 6 5 5 5 5 5 6 6 7 8 8 9 10 11 12 13 14 15 16 17 17 17 18 18 19 20 21 21 22 23 24 24 25 26 27 27 28 28 29 29 29 29 29 28 28 27 27 26 26 25 25
21 19 18 17 16 15 15 14 14 13 12 11 10 9 8 7 6 6 5 5 5 5 5 6 6 7 8 8 9 10 11 12 13 14 15 16 17 18 18 19 19 19 20 21 21 22 23 24 24 25 25 26 27 27 28 28 28 29 29 29 28 28 27 27 26 26 25 25 25
19 18 17 16 15 15 14 13 12 11 10 9 8 7 7 6 5 5 4 4 4 5 5 6 7 8 8 9 10 11 12 13 14 15 16 17 18 18 19 20 20 20 21 21 22 23 24 24 25 25 26 26 27 27 27 28 28 28 28 28 28 27 27 26 26 25 25 24 24
18 17 16 15 14 14 13 12 11 10 9 8 7 6 5 4 4 4 4 4 4 5 6 7 7 8 9 10 11 12 13 14 15 15 16 17 18 19 20 21 21 21 22 22 23 24 24 25 25 25 26 26 26 27 27 27 28 28 28 28 27 27 26 25 25 25 25 24 24
17 16 15 14 13 13 12 11 10 8 7 6 6 5 4 3 2 3 3 4 5 6 6 7 8 9 10 11 12 13 13 14 15 16 17 18 19 20 21 22 22 22 23 23 24 24 25 25 25 25 25 25 26 26 26 27 27 27 27 27 27 26 25 25 25 25 25 24 24
16 15 14 13 12 12 10 9 8 7 6 5 4 3 2 2 2 2 3 5 6 7 7 8 9 10 11 12 13 14 14 15 16 17 18 19 20 21 22 23 23 23 23 24 24 25 25 25 25 25 25 25 25 25 26 26 27 27 27 27 26 26 25 25 25 25 25 25 25
14 14 13 12 11 10 9 8 7 6 5 4 3 2 1 1 2 3 4 5 7 8 9 9 10 11 12 13 14 15 16 16 17 18 19 20 21 21 22 23 24 24 24 25 25 25 25 26 26 25 25 24 24 24 25 25 26 26 27 26 26 26 26 26 25 26 26 26 26
13 13 12 11 10 9 8 7 6 5 4 3 2 1 1 2 3 4 5 6 8 9 10 10 11 12 13 14 15 16 17 17 18 18 19 20 21 22 23 24 25 25 26 25 26 26 26 26 26 25 24 24 23 23 23 24 25 26 26 26 26 26 26 26 26 27 27 27 27
Wind_Direction
179 175 170 165 158 151 143 134 126 118 109 101 94 88 81 74 69 63 58 53 49 47 45 44 44 44 46 48 48 49 49 49 50 50 50 50 49 49 48 47 47 46 46 46 45 45 45 46 46 46 46 46 45 45 44 43 43 42 41 40 39 38 38 39 40 40 40 39 40
179 177 173 168 162 155 146 137 129 121 113 104 96 90 84 77 71 65 60 57 52 49 46 45 44 45 47 48 48 47 48 48 48 47 47 47 47 46 45 44 44 43 43 43 43 43 43 43 43 44 45 45 44 44 43 43 41 41 40 40 38 37 37 38 38 38 37 37 36
180 179 177 174 168 161 152 142 132 122 114 107 100 94 88 82 75 69 64 59 54 50 48 46 44 44 46 47 47 46 46 45 45 44 44 44 43 42 42 41 40 40 40 39 39 40 40 40 40 41 42 42 42 42 41 41 39 39 39 38 37 36 35 36 36 36 35 35 34
182 182 181 179 174 167 158 148 137 127 118 110 104 98 92 86 80 74 68 62 58 54 50 47 45 44 45 46 46 45 43 42 42 41 41 40 39 38 37 36 36 36 36 36 36 36 36 36 37 37 38 39 39 39 39 38 37 36 36 36 35 34 33 33 33 33 33 32 32
184 185 184 182 178 171 163 154 143 133 124 117 110 103 96 90 84 78 73 68 63 57 51 46 45 44 44 44 44 43 41 40 39 38 37 36 36 34 33 32 32 31 31 31 32 32 32 32 32 33 34 35 36 36 36 35 35 34 34 33 32 32 31 30 30 29 29 29 29
186 186 186 184 180 175 168 160 150 140 132 124 115 107 100 95 89 85 80 75 67 59 52 48 46 45 44 44 42 40 38 37 36 35 34 34 32 31 30 29 28 28 28 28 28 28 28 28 29 29 30 30 31 32 32 32 32 32 31 31 31 30 29 28 27 26 24 24 24
187 186 185 183 181 176 170 162 154 146 137 129 119 110 104 99 95 91 85 78 71 64 58 52 49 48 46 44 41 39 37 35 34 33 32 31 30 29 28 27 26 25 25 25 25 25 25 25 25 26 26 26 27 28 28 29 29 30 30 30 29 28 27 26 25 23 22 21 20
186 185 184 182 179 175 170 163 157 148 140 132 123 115 108 104 100 96 91 85 79 72 64 58 54 51 47 43 40 37 36 34 34 32 31 30 28 27 26 24 23 23 22 22 22 22 22 22 22 22 23 23 23 24 24 25 26 27 28 29 29 28 27 26 24 23 21 20 18
186 184 182 180 177 174 169 164 158 150 142 134 127 120 115 110 107 103 100 96 88 78 70 64 58 52 48 43 39 37 34 33 33 32 30 28 26 24 23 21 20 19 19 18 19 18 18 18 18 19 19 19 19 19 20 21 21 23 24 25 26 27 27 26 25 24 23 21 19
187 185 182 178 175 173 170 166 161 155 146 138 132 127 122 118 115 113 110 102 93 85 78 70 62 55 49 43 38 36 34 33 32 30 28 26 24 22 20 18 17 16 15 15 15 15 15 14 14 15 14 14 14 15 15 16 16 17 18 19 20 22 23 24 24 24 24 23 22
188 187 183 178 174 173 172 168 164 159 151 143 137 133 129 126 125 122 117 109 102 95 86 75 68 59 51 43 39 36 34 33 31 29 27 25 23 20 19 17 15 14 13 12 12 11 11 11 11 11 11 11 11 11 11 11 12 12 13 13 13 15 16 17 19 20 22 22 22
187 186 182 178 175 174 172 170 166 161 155 147 142 138 136 135 133 130 125 118 111 102 91 82 73 62 51 44 40 37 34 32 30 28 26 24 22 20 18 16 14 13 11 10 9 9 8 8 8 8 8 8 8 8 8 8 8 8 8 8 8 8 9 10 11 13 15 17 18
185 183 181 178 176 175 173 171 168 164 158 152 148 146 144 143 140 137 132 126 116 107 96 87 76 63 53 45 40 36 33 31 29 27 25 24 22 20 18 16 14 12 10 9 8 7 6 6 6 6 6 6 6 6 6 6 6 6 5 5 4 4 4 4 5 6 7 9 10
182 180 179 178 177 176 176 174 172 167 162 157 155 153 152 150 149 144 138 129 121 112 102 91 79 66 54 45 39 34 31 28 26 25 23 22 20 19 17 15 13 11 9 7 6 5 4 4 3 3 3 4 4 4 4 4 4 3 3 2 2 2 1 1 1 0 1 1 3
180 179 178 178 178 178 178 178 176 171 166 162 160 160 159 159 156 150 144 135 127 118 107 94 81 66 53 44 37 31 27 25 23 22 22 21 19 18 16 14 11 9 8 6 4 3 2 2 1 1 1 1 1 1 1 1 1 0 0 360 359 359 359 358 358 357 357 357 357
179 178 178 179 180 180 181 180 178 174 170 167 167 167 167 165 162 157 150 142 133 124 112 99 83 67 53 43 35 29 25 23 21 20 20 19 18 16 14 12 10 7 5 4 2 1 360 359 359 358 358 358 358 358 358 358 357 357 357 357 356 356 356 356 355 355 354 353 353
180 179 179 180 181 182 183 182 179 176 173 172 172 172 172 171 168 163 156 148 140 129 117 103 84 66 54 43 34 28 25 22 20 19 18 17 16 14 12 10 7 5 3 1 360 358 357 356 356 355 355 355 355 355 354 354 354 354 354 354 353 353 353 353 352 352 351 350 350
180 180 180 181 182 183 184 183 180 177 175 176 176 177 177 176 174 169 162 155 146 135 122 106 89 71 57 46 36 28 24 22 20 18 17 16 14 12 10 7 5 2 0 358 357 355 355 353 353 352 352 351 351 351 351 351 351 351 351 350 350 350 350 350 349 349 348 347 347
181 181 181 182 183 184 184 182 180 178 178 179 180 180 181 181 179 175 169 161 154 144 131 114 96 77 61 47 38 30 24 21 19 17 15 14 12 10 7 5 2 360 357 356 354 353 351 350 350 349 349 348 348 348 348 348 347 347 347 347 347 347 347 346 346 345 345 344 343
182 182 182 183 183 183 182 181 180 180 180 182 183 184 185 184 183 179 174 167 160 153 142 126 105 84 65 49 38 31 24 20 18 16 14 12 10 7 5 2 359 357 354 352 351 349 348 347 346 346 345 345 345 345 344 344 344 344 343 343 343 343 343 343 343 342 342 341 340
183 182 182 182 182 181 181 181 181 182 183 185 186 187 188 187 186 182 178 173 167 160 152 139 119 92 68 50 37 29 22 17 15 14 12 10 7 5 2 359 356 354 351 350 348 346 345 344 343 343 342 342 342 341 341 341 340 340 340 340 340 340 340 339 339 339 338 338 338
182 182 181 180 180 180 180 181 183 184 186 188 189 189 190 190 188 185 182 178 173 168 161 151 132 100 69 45 33 24 18 14 12 11 9 7 4 1 358 356 353 350 348 346 345 343 342 341 340 339 339 339 338 338 338 337 337 336 336 336 336 336 336 336 336 336 335 335 335
182 180 180 179 178 179 180 182 184 187 189 190 191 191 192 191 190 188 186 183 179 175 171 163 148 114 70 38 22 13 8 7 7 7 6 3 0 357 354 351 349 347 345 344 342 341 340 339 338 337 337 336 336 335 335 334 334 333 333 332 332 332 332 333 333 333 332 332 332
181 180 178 178 178 179 181 183 186 189 190 192 192 193 193 193 192 191 189 188 185 183 180 175 167 149 74 14 0 356 356 359 2 2 1 358 355 352 349 347 345 344 343 342 341 340 339 338 337 337 336 335 334 334 333 332 332 331 331 330 330 330 330 330 330 330 330 329 329
180 179 178 178 179 180 182 185 188 191 192 193 194 194 194 194 194 193 193 192 191 190 190 191 194 200 246 309 325 333 342 349 353 355 354 352 349 347 345 344 343 342 341 341 340 340 339 338 338 336 335 334 333 332 331 331 330 330 329 329 329 328 328 327 327 327 327 327 327
179 179 179 179 180 181 184 187 190 193 194 194 195 195 195 196 196 196 196 196 196 197 201 207 215 229 253 281 301 317 331 340 345 346 346 346 344 343 342 342 342 341 341 340 340 339 339 338 337 336 334 332 331 330 329 329 328 328 327 327 327 326 326 325 325 325 324 324 324
179 179 180 180 181 183 186 189 192 194 195 195 196 196 197 198 199 199 200 201 203 207 211 219 228 241 257 274 291 310 325 335 338 340 340 341 341 341 341 341 341 340 340 339 338 338 337 336 335 333 331 330 328 327 326 325 325 325 324 324 324 324 323 323 322 322 321 321 320
179 180 181 181 183 185 188 191 193 195 196 196 197 198 199 200 201 203 205 207 211 216 222 228 236 247 262 278 295 312 323 330 333 335 336 337 338 338 339 339 338 338 337 336 336 335 333 332 331 330 328 326 325 323 322 322 321 321 321 321 321 320 320 320 319 319 318 317 316
180 181 182 183 184 186 189 191 193 195 196 197 198 199 201 202 204 206 209 214 220 226 232 238 245 257 271 287 302 314 321 326 329 331 333 334 334 335 335 335 335 334 333 332 331 330 329 328 327 326 324 323 321 320 319 319 318 318 318 318 318 317 317 316 316 315 315 314 313
180 180 182 183 185 187 189 192 194 196 197 198 200 202 203 204 206 210 214 220 227 234 240 248 258 270 283 295 305 313 319 323 326 328 329 329 329 329 329 329 329 329 329 328 327 326 325 324 323 322 321 320 319 318 317 316 316 316 316 316 315 315 315 314 313 313 312 312 311
179 180 181 183 185 187 189 192 194 197 199 201 202 203 205 206 209 213 218 225 231 239 248 258 268 277 287 296 305 312 317 321 322 323 323 323 323 323 323 324 324 325 324 324 323 323 322 321 321 320 319 318 317 316 316 315 315 315 314 314 314 314 313 312 312 311 311 310 309
178 180 181 183 184 186 189 192 195 197 200 202 203 204 206 208 212 217 223 229 237 247 258 267 276 283 292 299 306 311 314 316 317 317 317 317 317 318 319 320 321 321 321 321 321 320 320 320 319 319 319 318 317 316 315 314 314 313 313 313 313 313 312 312 311 311 310 310 309
179 180 182 182 184 186 189 192 195 198 200 201 203 205 207 210 216 222 229 236 246 256 267 276 283 290 297 303 307 309 311 312 312 312 313 313 314 315 316 317 318 319 319 320 320 320 319 319 319 319 319 318 316 315 314 314 313 313 312 312 312 312 312 312 311 311 310 309 309
180 181 181 181 183 186 189 192 195 197 199 200 202 204 207 212 219 225 234 243 252 263 273 282 289 294 299 302 305 307 308 309 309 310 311 312 313 314 315 316 317 318 319 319 320 320 320 320 320 319 319 318 316 315 314 314 313 313 312 312 312 312 312 311 311 310 310 309 309
180 180 179 181 183 186 189 192 194 196 197 198 200 204 209 214 221 229 239 249 261 272 281 287 292 296 299 302 303 305 307 308 309 310 311 312 313 314 314 315 317 318 319 320 320 320 320 320 320 320 319 318 316 316 315 314 314 313 312 312 312 312 311 311 311 310 310 309 309
177 178 179 181 184 187 189 191 192 193 194 195 198 204 211 218 227 236 248 262 274 282 288 292 296 299 302 304 305 306 307 308 309 310 311 312 313 314 314 315 317 318 320 320 320 320 320 320 320 320 319 318 317 317 316 315 314 313 312 312 311 311 311 311 310 310 310 309 309
175 177 180 182 185 186 188 188 189 189 190 193 198 205 212 221 233 246 262 274 283 289 294 297 300 303 304 306 306 307 307 308 309 310 311 312 314 315 315 316 317 318 320 320 320 320 320 321 321 321 320 319 318 318 317 315 314 313 312 312 312 312 311 311 311 310 310 310 310
175 178 181 183 184 184 184 183 184 184 186 191 196 202 210 222 239 261 277 287 293 297 300 303 305 307 307 306 306 306 308 309 310 312 313 314 315 316 317 317 318 319 320 321 321 321 321 321 322 322 321 320 319 318 317 315 314 312 312 312 312 312 312 312 311 311 310 310 310
175 178 180 180 180 179 178 177 177 177 179 181 182 188 200 225 258 284 296 300 302 304 306 308 310 310 309 308 308 309 310 311 313 314 315 316 317 317 318 318 318 319 320 321 321 322 322 322 322 322 322 320 319 318 316 314 312 311 311 312 312 313 313 312 311 311 310 310 309
173 175 175 174 173 172 170 168 166 165 163 161 160 166 197 261 292 304 309 309 309 310 311 312 313 312 312 311 312 312 312 313 314 316 317 318 318 318 318 319 319 320 321 322 322 323 323 323 323 323 322 320 319 317 315 313 311 310 310 311 312 312 312 312 311 310 310 309 308
168 168 167 164 162 160 157 154 150 147 147 145 147 168 276 302 310 314 315 317 318 318 316 316 314 314 314 314 314 314 315 315 315 317 318 318 318 319 319 320 320 321 322 323 323 323 323 323 323 323 321 319 317 314 312 310 308 307 309 311 312 312 311 311 311 310 309 309 308